Theta_e
283 281 278 277 277 277 277 276 276 277 279 279 278 278 283 284 282 283 283 283 283 284 288 287 288 289 289 290 290 290 290 291 292 293 293 293 293 295 295 296 296 297 297 298
280 278 279 281 280 279 279 277 277 279 279 279 278 279 284 284 282 283 285 283 284 284 285 287 288 288 289 290 289 289 290 291 292 292 293 293 294 294 294 295 296 296 296 297
278 278 281 280 279 279 277 277 276 277 278 277 276 279 282 282 281 282 282 283 282 284 285 286 286 287 288 288 289 289 290 291 291 291 293 293 294 293 293 294 294 295 295 296
278 279 280 279 278 279 278 278 278 278 277 276 276 276 281 280 281 282 283 283 282 282 283 285 286 286 287 288 288 289 290 290 291 291 291 291 290 289 292 292 293 294 294 294
278 277 278 278 279 279 278 279 278 277 275 275 275 274 279 279 282 283 284 284 283 283 283 284 285 287 288 288 288 289 289 289 290 291 291 290 289 291 291 291 291 292 293 293
278 279 279 278 279 279 280 278 278 276 275 271 272 274 278 281 281 282 283 284 284 284 284 284 285 286 287 288 288 289 289 289 290 290 291 290 289 289 289 289 289 290 291 291
277 277 277 279 277 279 279 276 273 272 270 273 272 272 279 282 283 282 283 284 284 284 284 284 284 285 286 288 288 288 288 288 289 290 290 290 289 289 288 288 288 288 288 289
273 273 276 278 276 276 276 275 273 269 270 272 274 273 280 282 282 282 283 283 283 283 283 284 285 285 286 287 287 287 287 287 288 289 289 289 289 288 288 288 288 287 288 288
271 273 276 278 277 277 275 273 275 270 266 269 273 277 282 282 282 283 283 283 283 283 284 284 284 284 286 286 286 286 286 287 288 288 288 288 288 287 286 287 287 288 289 288
276 272 276 277 277 277 276 278 273 271 267 265 272 273 278 282 282 282 282 283 284 284 283 284 284 284 285 285 285 285 285 286 288 287 287 287 286 286 286 286 286 286 286 286
270 275 273 275 272 273 273 272 271 271 272 269 267 274 279 281 282 283 284 283 283 283 283 284 284 284 284 284 284 284 284 287 286 286 286 285 285 285 286 285 285 286 286 286
277 272 269 271 274 275 275 274 275 272 269 268 271 272 281 282 282 281 282 283 283 283 284 283 283 283 283 283 283 283 284 286 285 285 285 284 285 285 284 284 285 286 286 286
276 270 265 270 271 273 269 274 276 273 272 267 270 275 281 280 281 282 281 283 284 284 284 283 283 282 283 282 282 283 285 285 284 284 283 283 283 283 283 284 285 285 285 285
281 272 273 273 274 271 267 268 273 271 266 270 273 277 282 285 286 284 283 282 283 283 283 283 282 282 282 282 282 282 284 284 283 283 282 282 283 283 283 284 285 285 285 284
276 269 268 269 272 269 269 267 271 272 276 273 279 276 281 284 286 284 282 281 281 281 282 281 281 282 281 281 282 283 284 283 282 282 282 282 283 283 284 284 284 284 284 284
274 268 266 266 272 272 270 273 272 275 276 275 277 276 284 286 286 285 285 283 282 282 282 282 281 282 282 282 282 283 283 282 282 281 282 282 282 283 283 283 283 283 283 284
272 268 267 268 271 271 270 273 272 274 275 278 275 281 286 285 285 284 282 282 282 283 283 282 282 282 282 282 282 283 282 282 281 282 282 282 282 282 283 283 283 282 282 283
274 271 274 269 269 269 278 275 275 278 280 280 281 284 285 285 281 282 282 283 284 284 283 282 281 281 282 282 283 283 282 281 282 282 281 282 281 282 283 283 282 281 281 279
277 277 272 272 264 273 278 274 275 274 277 280 280 282 284 282 281 284 285 284 284 284 283 283 282 282 281 282 282 282 281 281 281 281 281 279 281 282 282 282 282 280 279 279
278 278 279 270 271 268 278 279 278 278 277 284 283 283 283 280 278 282 283 283 283 283 283 283 282 281 281 282 282 282 280 280 280 281 281 278 282 282 282 282 282 280 278 278
272 271 273 275 272 271 279 278 278 276 281 285 286 285 280 280 285 285 282 282 282 283 283 282 281 282 282 282 282 281 280 279 281 282 279 279 282 283 283 283 278 278 278 277
272 271 270 274 272 271 279 276 279 286 285 284 282 283 282 283 282 282 282 283 283 283 280 281 281 281 282 281 281 280 279 280 280 281 276 280 282 283 283 282 281 279 277 277
275 277 274 276 277 282 282 284 284 284 286 284 284 284 283 282 283 283 283 282 281 281 282 280 281 280 277 278 280 280 281 278 279 279 273 280 282 283 283 282 281 279 277 276
274 280 275 276 281 279 281 285 284 283 284 284 284 284 283 283 283 283 283 283 281 281 281 279 279 279 280 278 279 281 279 278 279 279 273 279 280 282 283 283 282 278 276 276
282 278 278 274 280 280 281 282 284 284 283 283 283 284 284 284 287 286 284 283 283 282 280 278 280 281 282 280 280 279 278 279 280 279 275 278 280 281 281 282 282 282 277 279
279 277 278 279 285 285 288 288 288 284 283 284 284 284 283 284 286 285 283 283 282 282 280 278 279 279 281 279 280 278 279 280 281 279 277 277 279 281 281 281 280 283 283 284
Wind_Speed
5 5 2 1 0 2 4 3 3 2 2 3 6 10 21 9 9 15 14 13 13 15 10 7 7 6 5 5 4 3 4 3 2 2 2 2 4 6 6 5 7 8 8 9
5 2 3 2 1 3 2 2 3 3 2 1 4 17 22 9 9 11 15 12 15 10 10 8 7 6 6 4 4 4 3 3 1 0 1 2 3 5 6 6 7 8 9 10
5 4 3 3 2 2 1 1 0 2 6 0 7 9 8 2 3 5 8 7 7 14 13 12 7 8 5 6 5 4 3 3 2 2 2 3 4 4 4 5 7 7 10 11
5 3 3 2 2 1 2 2 2 3 5 4 5 8 10 4 9 6 8 8 8 8 6 6 8 6 7 7 5 5 3 2 2 2 3 4 5 8 6 8 8 9 10 10
3 5 3 2 2 1 3 2 3 1 3 3 2 1 12 4 6 5 5 7 6 5 5 7 8 7 7 6 6 4 3 3 2 3 3 4 7 7 8 8 12 11 10 9
4 1 1 3 2 3 6 4 3 3 2 2 1 3 9 4 3 5 4 3 3 3 5 5 5 5 5 3 4 3 4 3 2 3 4 5 9 10 9 10 10 9 8 8
2 2 1 1 4 2 1 3 4 6 4 5 0 1 14 6 5 3 3 4 3 5 4 6 8 6 5 5 5 4 4 5 3 4 5 7 9 11 12 12 10 13 9 8
6 6 4 1 1 4 3 2 6 6 3 4 3 7 10 7 2 5 7 5 6 5 6 8 8 7 6 5 6 5 5 4 3 4 7 7 8 7 8 9 10 9 9 11
6 2 0 2 2 2 4 2 4 7 2 4 4 9 13 4 6 8 9 5 8 7 7 8 6 7 7 6 6 6 5 4 3 4 5 8 8 9 9 12 11 9 11 11
4 3 2 1 1 4 1 4 4 3 1 4 5 6 9 4 2 2 3 9 9 8 7 6 6 7 6 5 4 4 4 4 4 4 4 7 9 9 10 10 12 12 13 14
4 5 2 3 6 9 4 2 4 4 5 6 2 8 8 7 4 5 7 5 7 8 7 8 8 7 6 4 4 5 4 4 4 4 5 6 8 9 10 10 11 12 13 14
8 7 5 8 3 4 4 5 7 7 7 3 2 11 4 7 9 6 9 8 7 7 8 7 7 7 6 7 5 6 4 3 3 4 6 7 8 9 10 11 12 12 13 14
8 2 3 7 4 5 4 5 3 5 3 8 7 8 4 5 7 8 9 9 8 7 8 8 6 7 7 7 5 5 4 4 2 4 5 7 7 8 10 11 12 12 14 14
6 3 9 11 8 7 5 6 6 7 4 4 12 8 11 19 18 9 10 10 9 9 9 8 6 8 7 6 5 5 4 3 2 3 4 6 7 8 9 11 11 12 13 14
6 6 4 3 2 3 5 6 12 14 15 12 7 17 16 21 19 8 7 4 7 10 9 8 8 7 5 5 5 4 4 3 2 4 4 5 6 7 10 10 11 12 12 12
2 4 4 4 1 3 4 9 11 17 11 19 18 29 19 22 19 21 18 9 10 12 11 9 9 8 7 7 7 6 5 4 2 3 5 6 5 8 9 9 11 11 12 13
9 7 4 7 2 4 9 19 17 11 9 14 17 30 17 19 15 12 7 9 11 14 12 9 10 8 7 8 7 7 6 5 4 3 3 4 6 7 8 9 10 10 12 13
10 7 3 3 2 9 8 2 6 21 17 22 20 22 20 17 3 8 9 14 17 13 10 9 7 6 6 5 7 7 6 5 4 3 3 3 4 6 7 7 9 10 9 11
4 9 5 6 7 10 14 8 11 12 12 22 24 26 26 5 5 17 6 8 13 9 8 7 5 4 4 7 6 7 7 5 4 4 4 3 3 5 5 7 9 9 9 10
6 4 12 5 8 15 7 6 8 7 19 16 26 26 15 7 2 6 4 4 2 5 4 5 5 4 6 6 7 7 6 6 7 6 6 4 4 4 4 4 8 6 7 9
7 4 19 16 9 10 8 5 6 8 8 13 14 15 9 8 9 5 2 1 0 2 5 4 6 7 8 7 7 8 6 9 7 5 5 5 4 4 3 4 3 5 8 9
17 14 9 9 9 20 10 7 12 8 4 6 6 6 10 5 3 5 5 7 7 7 3 5 7 8 7 7 9 8 10 6 6 6 5 5 4 3 2 4 5 6 6 7
9 12 12 17 13 8 18 15 19 4 7 6 7 6 9 7 9 9 7 7 7 8 6 5 8 6 5 7 10 9 8 7 8 7 5 6 4 4 2 1 3 4 4 4
5 11 5 5 13 10 16 21 9 9 10 6 7 9 8 9 10 9 7 6 6 6 8 6 6 8 11 10 11 14 7 9 9 8 6 6 5 4 3 1 0 1 3 3
12 14 16 5 7 5 8 12 13 15 9 8 8 10 14 9 10 8 8 7 6 7 5 5 8 10 14 8 13 11 9 11 10 8 6 7 5 6 5 4 2 1 3 1
6 11 12 12 21 14 17 19 24 17 16 17 13 12 14 14 18 9 9 7 7 8 4 5 8 8 14 8 10 9 12 14 12 9 8 7 6 7 5 5 2 1 3 6
Wind_Direction
14 70 178 143 200 111 122 145 219 219 162 303 230 272 275 235 226 245 240 237 234 229 236 217 227 222 225 238 245 258 304 315 346 354 340 325 311 311 297 287 289 294 291 293
34 129 171 127 116 97 63 144 254 270 101 5 343 283 269 253 229 221 238 224 229 227 220 222 218 213 209 207 242 253 269 311 344 258 268 260 278 277 276 281 283 283 289 289
151 155 166 169 116 154 66 180 93 267 319 123 316 281 299 304 252 237 252 248 234 230 227 225 204 216 209 226 227 244 273 298 322 337 311 299 273 278 286 295 301 295 292 291
96 177 167 139 145 185 207 97 77 9 19 275 2 285 307 332 294 252 252 236 241 230 222 215 203 202 206 220 210 233 249 295 316 350 327 323 303 305 301 299 295 295 287 286
176 150 167 160 96 341 133 84 84 78 88 345 17 77 271 338 316 313 273 246 252 240 207 207 201 198 212 196 214 224 264 285 289 320 318 312 303 295 298 297 300 299 295 290
104 186 44 108 95 70 145 105 77 70 96 12 260 150 280 243 237 323 351 320 308 243 219 226 224 223 230 229 231 231 257 273 292 309 316 310 307 306 308 310 306 306 307 303
41 91 98 109 105 57 145 74 329 346 12 224 349 358 249 301 271 232 329 8 331 240 220 220 225 220 224 232 243 246 236 275 298 318 324 318 303 303 304 308 309 313 311 307
150 306 168 329 116 160 154 156 157 219 230 281 21 235 252 218 292 256 255 266 295 273 222 228 228 222 222 246 259 247 245 263 302 324 318 307 304 302 300 300 303 297 299 301
128 266 87 35 146 145 167 160 174 108 75 44 259 286 290 248 258 249 253 257 254 252 241 237 240 224 229 240 254 235 239 269 292 314 313 308 302 304 301 298 292 299 304 308
219 69 342 87 148 14 143 151 92 2 188 286 285 278 248 326 265 342 260 241 261 250 251 251 243 237 238 242 257 224 239 261 293 309 303 305 303 303 300 300 300 306 309 311
127 101 296 34 211 177 149 181 51 113 147 186 241 257 215 228 248 280 277 283 271 256 241 243 239 229 237 256 252 236 236 263 287 303 301 301 305 302 302 299 301 312 309 309
198 139 171 217 318 348 317 201 163 135 227 224 156 264 221 235 254 255 269 269 261 246 250 246 244 240 244 257 253 224 220 236 279 307 311 309 302 298 301 301 308 312 310 313
194 258 51 341 348 354 215 206 167 82 68 200 154 252 210 244 249 245 250 255 260 263 267 260 255 242 243 248 229 209 219 234 273 303 315 309 304 304 306 314 318 319 319 316
131 144 172 192 200 131 190 196 174 138 136 193 229 270 289 280 276 259 248 248 256 260 260 264 268 252 250 238 205 203 215 227 280 307 307 308 309 307 310 321 323 320 322 316
137 209 163 278 127 123 194 165 184 198 211 199 240 227 237 253 265 272 236 239 260 260 261 248 247 251 238 217 198 195 213 211 256 297 310 306 306 311 328 327 327 322 323 316
169 226 120 299 184 205 275 230 195 215 235 257 265 272 255 272 286 276 279 261 258 259 255 251 241 235 226 205 194 186 199 205 207 285 301 304 325 336 332 336 329 327 322 315
156 141 114 255 116 124 291 218 195 201 197 213 229 245 277 270 254 263 252 238 251 262 265 247 237 228 213 196 177 188 190 171 202 250 286 313 342 328 337 338 327 329 318 311
151 144 172 179 99 225 247 116 189 214 223 218 250 258 253 251 311 263 237 257 264 263 253 241 234 224 216 182 165 155 165 190 194 227 257 299 325 315 336 344 330 321 310 309
191 163 171 175 211 305 282 187 182 176 250 217 226 244 250 274 359 294 246 228 246 238 239 237 222 197 184 181 168 160 167 189 198 211 242 262 290 310 338 342 327 318 313 315
188 325 208 143 204 212 250 186 148 132 273 188 212 235 239 132 187 259 223 220 264 203 209 206 181 167 166 198 166 172 185 184 208 201 221 232 251 280 300 318 321 313 310 307
169 199 211 210 226 273 231 150 170 144 251 203 205 226 149 183 193 200 139 108 36 230 213 167 173 196 193 170 171 199 187 210 203 181 206 224 232 261 299 329 305 313 326 323
173 170 186 206 217 247 147 92 192 208 178 153 176 184 194 222 349 279 293 277 267 263 252 208 199 211 205 174 177 202 213 195 173 181 201 217 220 247 303 330 341 326 332 335
194 194 178 196 207 205 184 206 216 192 179 166 130 176 176 184 221 214 213 216 245 247 236 196 216 228 211 195 193 201 219 165 173 180 199 213 209 234 254 326 7 328 328 326
249 200 195 136 234 237 209 227 226 196 227 167 165 169 179 215 208 227 219 226 230 239 240 193 192 231 243 203 210 214 170 162 173 198 193 205 203 201 211 197 110 326 320 328
199 158 205 238 263 261 265 239 238 225 206 196 198 210 223 222 254 235 251 246 243 237 239 181 206 224 244 198 221 200 170 166 185 194 191 208 204 198 199 204 163 65 289 11
178 187 191 214 223 217 230 217 228 217 216 222 212 235 239 219 245 223 243 234 229 242 232 218 222 220 244 205 223 191 179 174 184 193 190 199 198 200 197 206 187 182 335 8